Location: Bridalveil Moraine
(37.7171°N, 119.6568°W)
Time: 00:05:47
(UTC+00:00)

Tiangong - Pass Details

Date: 30 January 2026
Orbit: 386 x 392 km, 41.5° (Epoch: 10 February)

Event Time Altitude Azimuth Distance (km) Brightness Sun altitude
Exits shadow 13:51:11 23° 237° (WSW) 884 -0.7 -14.6°
Maximum altitude 13:51:59 26° 211° (SSW) 814 -0.7 -14.5°
Drops below altitude 10° 13:54:44 10° 153° (SSE) 1,422 1.3 -13.9°
Sets 13:57:00 0° 140° (SE) 2,276 2.7 -13.5°
